Temp
5 6 6 6 6 6 6 5 6 6 5 5 5 5 6 6 5 5 6 6 6 6 6 5 5 5 6 6 6 6 6 6 6 6 6 6 6 6 6 5 5 5 5
5 5 6 5 6 6 6 6 5 5 5 5 5 5 5 5 5 5 5 5 6 6 6 6 5 5 5 5 5 5 5 5 5 5 5 5 5 5 5 5 5 5 5
5 5 5 5 5 5 5 5 5 5 5 5 5 5 4 4 4 5 5 5 5 5 5 5 5 5 5 5 5 5 5 5 5 5 5 5 5 5 5 5 5 5 4
4 4 4 4 4 4 4 5 5 5 5 5 5 4 4 4 5 4 4 4 5 5 5 5 5 5 5 5 5 5 4 4 4 5 5 5 5 5 5 5 5 4 4
4 4 4 4 4 4 4 4 4 5 5 4 5 5 4 4 4 4 3 4 4 4 5 5 4 4 4 4 5 5 5 4 4 4 4 4 4 5 5 5 4 5 4
3 3 3 3 3 3 4 4 4 4 4 5 4 4 4 4 4 4 4 4 3 4 4 4 4 4 3 4 4 4 5 4 4 4 4 4 4 4 4 5 4 4 4
2 2 3 3 3 3 3 3 3 4 4 3 3 3 4 4 4 4 4 4 3 4 4 3 3 4 3 3 3 4 4 4 4 4 3 3 4 4 4 4 4 3 4
2 2 2 2 2 2 2 2 2 2 3 3 3 3 3 3 3 4 4 4 4 4 3 3 3 3 3 3 4 3 4 3 4 3 3 3 3 3 3 3 3 3 3
1 1 1 2 2 2 2 2 2 2 2 3 3 2 3 3 3 4 4 4 4 4 3 3 3 3 4 3 2 3 3 3 4 4 3 2 3 3 3 3 3 3 3
1 0 1 1 2 2 2 2 2 2 2 2 2 2 2 2 2 2 3 4 4 4 4 3 2 2 3 2 1 2 2 2 2 4 3 2 2 2 2 2 2 3 3
0 0 1 1 1 1 1 2 2 2 2 2 2 2 2 2 2 2 2 3 2 3 3 3 3 2 2 2 2 2 1 2 1 2 3 2 2 2 2 2 2 2 2
-0 0 0 1 1 1 1 2 1 1 2 2 2 2 2 2 2 2 2 2 2 2 3 2 2 2 2 2 2 0 0 0 1 1 1 1 1 2 2 2 1 1 1
0 0 0 1 -0 -1 -1 0 0 1 1 1 1 2 1 2 1 2 2 2 2 2 1 2 2 2 2 1 2 1 0 0 -0 1 1 1 1 1 2 1 2 2 2
-0 -1 -2 -1 -1 -2 -1 -1 0 1 1 1 0 2 2 2 2 1 1 2 2 2 1 2 1 2 1 1 1 1 0 -1 -0 0 0 1 1 1 1 1 1 2 2
-2 -2 -1 -1 -2 -3 -2 -1 -1 -0 -0 0 1 1 0 1 1 1 1 1 1 1 1 1 1 1 1 1 0 -0 -0 -0 -0 -0 -0 0 0 0 0 1 1 1 1
-3 -2 -2 -2 -2 -2 -1 -2 -2 -1 -1 -0 -0 -1 -1 -0 -0 -0 0 -0 0 0 0 0 0 0 0 -0 -0 -0 -1 -0 -0 0 0 -0 0 0 0 0 1 1 1
-2 -2 -2 -2 -2 -2 -1 -1 -1 -1 -1 -2 -1 -1 -1 -1 -0 -1 -0 -0 -0 -0 -0 -0 -0 -0 -0 -0 -0 -0 -0 -0 -0 -0 0 0 0 0 1 1 1 1 1
-2 -2 -2 -2 -2 -2 -2 -1 -1 -1 -1 -1 -0 -1 -1 -0 -2 -1 -1 -1 -1 -1 -1 -1 -1 -0 -0 -0 -0 -0 -0 -0 -0 -0 0 0 0 0 1 1 1 1 1
-2 -2 -2 -2 -2 -2 -1 -2 -1 -1 -1 -1 -1 -1 -1 -1 -1 -1 -1 -1 -1 -1 -1 -1 -1 -1 -1 -1 -0 -0 -0 0 -0 -0 -0 0 0 1 0 1 1 1 1
-2 -2 -2 -2 -2 -2 -2 -2 -2 -2 -2 -2 -2 -2 -2 -2 -1 -1 -2 -2 -1 -1 -1 -1 -1 -1 -1 -1 -1 -1 -0 -0 -1 -1 -1 -0 -0 -0 -0 -0 0 1 1
-3 -2 -2 -2 -2 -2 -2 -2 -2 -2 -2 -3 -3 -3 -3 -3 -3 -2 -2 -2 -2 -2 -2 -2 -2 -2 -2 -3 -2 -1 -1 -1 -1 -1 -1 -1 -0 -0 -0 -0 0 1 0
-4 -4 -4 -4 -4 -4 -4 -4 -3 -3 -4 -4 -4 -4 -4 -4 -4 -4 -4 -3 -3 -3 -3 -2 -2 -2 -2 -2 -2 -2 -1 -1 -1 -1 -1 -1 -0 -1 -1 -1 -0 -0 -0
-4 -4 -4 -4 -4 -4 -4 -5 -5 -5 -5 -5 -5 -5 -5 -5 -5 -5 -5 -5 -5 -5 -4 -4 -4 -3 -3 -3 -3 -2 -2 -2 -1 -1 -1 -1 -1 -1 -1 -1 -1 -1 -1
-5 -5 -5 -5 -6 -6 -6 -6 -6 -6 -6 -6 -6 -6 -6 -6 -7 -7 -7 -7 -7 -7 -6 -6 -6 -5 -5 -5 -4 -4 -3 -3 -2 -1 -2 -1 -1 -1 -1 -1 -1 -1 -1
-5 -6 -6 -6 -7 -7 -7 -7 -7 -7 -7 -8 -8 -8 -8 -8 -8 -8 -8 -8 -9 -9 -9 -8 -8 -7 -7 -7 -7 -6 -5 -5 -4 -3 -3 -3 -2 -2 -2 -2 -2 -1 -1
-6 -7 -7 -7 -8 -8 -8 -8 -8 -8 -8 -8 -9 -9 -10 -10 -11 -11 -10 -10 -10 -10 -10 -10 -10 -10 -9 -9 -8 -8 -7 -6 -6 -5 -5 -4 -4 -3 -3 -3 -2 -2 -2
Height
3130 3131 3132 3132 3135 3135 3136 3136 3137 3137 3137 3137 3138 3138 3139 3140 3141 3142 3142 3143 3144 3144 3144 3145 3145 3145 3145 3146 3146 3147 3148 3148 3149 3149 3151 3151 3151 3151 3151 3150 3149 3148 3147
3124 3125 3127 3128 3128 3128 3129 3130 3131 3131 3131 3131 3133 3133 3133 3134 3134 3136 3136 3138 3139 3140 3140 3141 3141 3141 3141 3141 3142 3143 3143 3144 3145 3146 3147 3147 3147 3147 3147 3147 3146 3145 3143
3118 3119 3121 3123 3123 3124 3124 3125 3126 3126 3127 3128 3127 3128 3128 3128 3128 3130 3130 3130 3133 3135 3135 3136 3137 3137 3137 3137 3138 3139 3140 3140 3141 3142 3143 3144 3144 3144 3143 3143 3142 3141 3140
3111 3113 3115 3117 3119 3119 3119 3120 3120 3121 3119 3120 3122 3122 3121 3122 3121 3123 3124 3123 3124 3126 3129 3131 3131 3132 3132 3133 3133 3133 3134 3135 3135 3137 3137 3138 3138 3139 3139 3138 3138 3137 3136
3104 3106 3108 3110 3110 3111 3112 3113 3115 3114 3114 3114 3114 3115 3115 3114 3113 3114 3115 3116 3116 3118 3120 3122 3123 3125 3126 3127 3127 3128 3128 3129 3129 3130 3132 3132 3133 3134 3134 3134 3133 3133 3131
3097 3099 3101 3102 3103 3104 3104 3105 3106 3107 3105 3104 3104 3105 3105 3105 3104 3104 3105 3107 3107 3108 3109 3112 3114 3116 3118 3119 3120 3121 3123 3123 3123 3124 3125 3126 3127 3128 3128 3128 3128 3128 3126
3089 3091 3093 3094 3095 3096 3097 3097 3097 3096 3097 3097 3094 3093 3093 3094 3093 3093 3094 3096 3097 3098 3098 3102 3103 3107 3109 3110 3111 3114 3116 3117 3116 3118 3119 3120 3121 3121 3121 3122 3122 3122 3122
3082 3083 3083 3084 3086 3087 3088 3088 3088 3087 3085 3087 3086 3085 3080 3081 3081 3083 3084 3085 3086 3088 3089 3090 3093 3096 3099 3101 3102 3105 3108 3109 3110 3110 3111 3113 3113 3114 3115 3116 3117 3116 3116
3070 3074 3076 3077 3078 3077 3077 3077 3077 3076 3074 3075 3076 3075 3072 3067 3068 3070 3073 3073 3075 3076 3077 3079 3080 3083 3087 3090 3094 3096 3100 3100 3101 3103 3103 3105 3106 3107 3108 3109 3109 3109 3110
3063 3067 3068 3069 3069 3068 3067 3065 3065 3063 3064 3061 3063 3064 3063 3062 3060 3057 3058 3061 3063 3063 3066 3067 3068 3070 3074 3078 3082 3085 3090 3091 3093 3094 3095 3095 3098 3098 3099 3101 3101 3102 3102
3057 3060 3059 3060 3060 3058 3056 3053 3052 3051 3051 3051 3050 3052 3052 3051 3051 3049 3046 3047 3049 3050 3053 3055 3056 3058 3061 3066 3070 3074 3076 3080 3079 3083 3084 3084 3086 3088 3089 3090 3094 3094 3095
3051 3051 3051 3051 3050 3048 3045 3042 3040 3039 3039 3039 3039 3040 3040 3040 3040 3040 3037 3038 3037 3038 3040 3042 3044 3048 3052 3055 3055 3060 3062 3063 3067 3071 3072 3076 3076 3078 3080 3081 3083 3087 3088
3043 3043 3043 3042 3040 3039 3038 3033 3030 3028 3026 3027 3029 3029 3029 3028 3029 3029 3028 3028 3025 3029 3027 3029 3031 3035 3039 3041 3042 3045 3047 3048 3055 3060 3062 3064 3065 3067 3070 3072 3071 3075 3077
3033 3033 3035 3034 3031 3032 3030 3027 3024 3021 3017 3016 3017 3017 3016 3017 3018 3017 3017 3017 3016 3015 3017 3020 3022 3023 3026 3029 3030 3031 3034 3040 3043 3047 3051 3053 3057 3059 3060 3062 3065 3067 3061
3028 3027 3026 3025 3026 3025 3022 3020 3016 3015 3009 3008 3003 3004 3006 3006 3006 3006 3006 3006 3007 3006 3006 3009 3012 3013 3015 3017 3018 3022 3025 3029 3033 3037 3040 3043 3047 3048 3050 3053 3055 3057 3058
3026 3026 3025 3023 3022 3020 3017 3014 3009 3006 3002 2997 2996 2997 2993 2995 2995 2995 2995 2996 2997 2997 2997 2999 3003 3004 3004 3006 3008 3011 3015 3020 3022 3025 3028 3031 3034 3036 3039 3042 3044 3047 3049
3023 3021 3020 3018 3015 3013 3010 3007 3003 3000 2996 2993 2991 2990 2988 2988 2987 2987 2986 2986 2988 2988 2987 2990 2991 2992 2993 2995 2997 3002 3005 3008 3010 3012 3015 3017 3020 3021 3024 3028 3031 3035 3037
3019 3017 3014 3011 3009 3006 3004 3000 2997 2995 2993 2991 2988 2985 2985 2984 2981 2980 2979 2979 2979 2979 2980 2980 2981 2982 2982 2985 2988 2991 2993 2995 2997 3000 3002 3004 3007 3009 3011 3015 3018 3022 3025
3013 3011 3008 3005 3002 2998 2997 2993 2990 2987 2984 2983 2981 2979 2978 2976 2975 2974 2974 2975 2974 2971 2971 2971 2973 2972 2972 2975 2978 2979 2982 2984 2987 2989 2991 2993 2996 2998 3000 3003 3006 3010 3014
3009 3006 3003 2999 2995 2991 2988 2984 2982 2979 2976 2973 2971 2969 2967 2966 2965 2965 2965 2964 2965 2966 2965 2964 2963 2963 2965 2966 2967 2969 2972 2975 2977 2980 2980 2983 2985 2987 2989 2991 2995 3000 3006
3003 3000 2996 2992 2988 2984 2980 2976 2972 2969 2966 2964 2962 2960 2957 2954 2953 2953 2952 2953 2953 2954 2954 2954 2954 2954 2955 2956 2958 2960 2962 2964 2967 2970 2972 2975 2976 2978 2981 2983 2986 2991 2996
2993 2990 2986 2982 2978 2974 2970 2966 2964 2961 2958 2954 2951 2949 2946 2944 2942 2941 2939 2939 2939 2939 2940 2941 2942 2942 2944 2944 2946 2947 2949 2952 2955 2962 2962 2967 2967 2969 2973 2976 2981 2985 2988
2986 2981 2977 2972 2969 2964 2958 2955 2951 2949 2947 2944 2941 2938 2936 2933 2931 2929 2929 2929 2928 2926 2925 2926 2926 2927 2928 2930 2933 2935 2937 2938 2941 2949 2950 2952 2957 2960 2963 2967 2972 2977 2980
2976 2971 2967 2961 2957 2952 2947 2943 2940 2937 2933 2930 2927 2925 2922 2922 2920 2916 2915 2914 2914 2915 2913 2912 2911 2913 2913 2917 2918 2919 2922 2923 2926 2932 2937 2937 2946 2948 2952 2955 2959 2965 2970
2968 2963 2958 2952 2947 2943 2938 2934 2929 2926 2922 2919 2916 2913 2910 2907 2905 2903 2899 2901 2901 2901 2899 2899 2899 2899 2900 2901 2902 2903 2906 2908 2910 2915 2923 2923 2928 2934 2939 2944 2948 2952 2958
2960 2954 2950 2945 2940 2935 2930 2925 2920 2914 2910 2906 2905 2902 2899 2895 2892 2889 2887 2885 2883 2886 2887 2887 2887 2887 2887 2889 2890 2890 2892 2893 2895 2897 2905 2910 2913 2919 2923 2929 2935 2940 2944
Wind_Speed
27 26 30 30 25 23 21 22 25 23 23 24 24 25 27 24 24 27 28 26 23 23 22 21 19 18 17 17 16 16 16 15 14 13 12 10 9 7 7 7 8 10 12
33 31 27 27 31 30 30 27 26 26 25 24 25 26 25 27 28 28 30 30 30 25 26 25 23 21 20 18 18 17 17 17 16 15 15 13 11 10 10 10 10 12 14
34 31 29 28 27 26 24 24 27 28 29 28 29 29 34 32 32 31 32 33 30 32 29 29 27 25 23 22 22 20 19 19 18 18 17 16 15 13 12 12 12 14 16
33 31 30 28 27 29 27 26 26 28 29 31 33 33 35 32 36 36 34 36 36 35 32 32 30 29 27 26 25 24 22 21 20 20 20 20 18 16 15 14 14 14 18
35 34 34 30 30 29 30 29 30 34 35 36 37 36 39 42 42 41 41 38 38 39 38 36 42 33 31 29 28 29 29 26 24 23 23 22 20 19 18 17 15 17 18
38 36 35 33 34 35 35 34 36 37 40 41 40 41 42 45 47 48 48 46 43 42 43 41 39 38 32 33 32 32 31 29 27 26 25 24 22 21 21 19 17 19 16
37 38 36 36 37 36 37 40 42 42 42 41 44 44 43 44 48 50 52 50 48 44 47 44 43 45 40 41 34 33 35 31 29 29 26 25 25 24 23 21 18 18 20
36 37 38 37 38 39 42 44 43 44 46 43 43 43 46 46 46 45 46 48 50 49 50 49 46 44 45 45 40 35 38 36 32 28 29 30 28 27 25 22 20 19 21
39 35 36 37 41 44 46 48 48 47 48 46 43 44 45 46 45 44 44 47 46 45 48 47 48 49 47 50 47 38 45 39 35 34 32 33 32 30 28 26 23 21 21
42 35 38 43 45 48 50 50 50 47 45 46 44 45 46 45 47 48 48 43 39 42 45 44 48 50 48 50 50 43 46 44 41 38 35 34 34 32 33 31 28 27 27
33 36 41 44 46 47 51 49 47 49 46 45 46 44 44 44 45 48 48 48 46 44 47 48 42 44 46 49 52 53 50 50 48 44 42 39 37 36 35 33 33 30 29
36 40 43 44 47 51 45 44 45 42 42 46 45 46 48 49 49 47 49 49 46 48 52 46 38 37 43 48 54 58 57 50 57 52 45 43 41 39 38 35 32 32 29
37 40 44 46 46 39 35 29 35 38 41 43 45 47 47 48 48 48 49 48 48 48 41 49 43 44 44 46 49 55 59 61 58 57 51 43 41 44 42 35 39 33 37
37 33 32 29 26 34 37 34 28 27 29 42 43 36 43 39 41 48 42 39 50 50 41 40 45 47 45 43 49 54 60 46 49 51 47 47 46 45 45 44 37 38 35
16 12 14 18 19 21 25 37 30 40 34 24 21 32 30 33 28 31 31 33 33 34 39 36 42 49 47 47 47 50 53 47 47 49 50 50 53 53 46 48 47 38 36
9 13 16 19 22 24 26 26 26 32 27 24 19 21 24 22 29 25 33 27 31 34 41 41 40 47 47 47 41 45 41 50 53 60 59 57 54 58 56 50 47 45 41
15 19 22 23 25 27 28 28 26 25 27 28 23 22 22 26 27 24 25 24 34 36 39 34 34 33 35 35 36 34 40 40 39 40 45 48 42 41 46 49 48 47 46
18 21 23 24 26 27 28 29 29 28 26 27 27 27 28 27 25 27 25 23 20 16 21 22 27 23 33 30 37 29 27 33 36 42 42 41 37 38 42 44 43 46 44
21 23 25 27 29 30 29 31 31 31 31 31 31 32 32 31 31 30 34 33 38 31 30 30 33 23 20 34 33 28 31 28 29 33 39 38 37 37 35 36 39 38 38
28 29 31 32 34 35 35 35 34 33 34 34 34 35 35 35 36 36 36 38 38 38 37 38 34 30 29 29 31 36 35 32 32 31 29 34 36 33 34 35 40 42 40
29 30 31 32 33 33 33 34 34 34 35 33 32 32 34 36 37 38 40 41 41 41 41 41 40 41 41 40 39 39 40 40 40 37 36 33 32 29 29 29 28 31 40
31 32 32 32 31 32 33 34 36 36 36 37 37 36 35 34 36 37 39 39 40 41 42 45 45 45 45 44 44 45 46 46 44 40 40 36 35 33 28 27 28 41 33
35 35 35 36 37 38 39 38 37 36 35 35 36 36 37 37 38 38 38 36 38 40 41 41 43 45 48 48 47 47 46 47 46 42 42 42 42 40 36 33 29 33 39
38 39 38 38 38 37 38 39 39 39 39 39 39 40 40 38 38 40 40 39 38 37 38 40 42 42 43 42 44 46 48 50 50 48 44 46 45 45 42 39 34 36 32
39 40 40 40 39 37 38 39 40 40 41 42 41 41 41 42 42 42 44 40 39 36 37 38 39 39 37 37 40 43 42 45 49 49 46 47 47 52 45 46 43 40 42
40 37 35 36 37 38 39 39 40 42 42 42 41 40 40 41 42 42 43 43 43 40 39 36 35 35 37 37 36 38 40 43 46 49 46 49 47 46 51 54 46 42 45
Wind_Direction
250 242 274 280 266 274 272 279 271 267 263 263 265 271 272 263 266 270 274 273 271 276 276 275 271 265 260 263 261 260 258 254 248 245 245 247 252 271 282 294 307 314 316
250 259 262 255 259 261 271 274 275 272 267 268 268 271 265 268 268 266 267 270 275 271 275 274 273 270 263 259 257 257 255 254 250 246 244 243 250 263 272 285 296 304 309
252 256 258 252 249 253 255 250 262 265 271 272 274 270 271 269 268 267 268 266 269 270 268 272 273 270 264 257 255 256 257 253 249 248 247 249 253 258 266 276 285 295 309
251 254 252 250 251 258 259 262 265 271 274 272 270 269 270 264 257 269 266 267 263 262 265 268 268 270 264 260 255 249 251 251 249 247 245 245 249 255 262 270 279 293 309
252 253 253 255 256 254 256 259 268 274 276 271 268 266 264 267 267 268 265 262 263 269 266 262 267 263 264 263 259 255 248 247 250 251 251 251 252 254 258 264 272 291 303
254 258 254 259 261 260 260 267 271 272 274 272 270 265 261 261 262 264 265 264 264 264 264 260 256 255 258 260 259 256 255 249 247 249 250 251 252 255 258 260 265 287 294
254 255 254 263 262 260 267 271 275 274 270 273 273 271 269 264 261 261 261 263 259 260 257 266 259 255 256 256 253 257 257 252 247 248 251 252 252 255 256 253 269 281 293
255 254 257 258 261 263 267 274 277 277 276 275 274 269 272 268 263 265 266 264 263 262 259 263 261 256 261 252 249 250 255 253 247 246 243 249 250 256 253 247 261 282 293
244 251 259 262 265 268 272 276 279 278 275 270 269 264 270 271 277 270 265 268 268 263 262 263 261 257 260 247 251 243 254 250 251 248 251 248 249 252 247 246 260 276 288
240 248 256 262 265 271 275 275 276 273 271 268 266 261 263 269 273 277 275 270 271 263 264 262 262 256 255 249 253 241 247 252 248 247 248 251 249 249 244 246 258 268 289
257 260 260 266 272 275 280 277 275 272 267 263 263 264 264 266 268 268 275 274 271 272 269 274 264 250 248 250 251 247 249 246 239 240 240 246 249 246 249 246 251 266 277
259 263 269 273 277 277 275 274 271 269 267 263 260 262 264 264 264 267 271 272 273 270 270 269 265 255 254 255 255 250 248 241 245 235 238 243 250 250 246 256 255 257 270
265 267 269 272 273 271 281 280 278 271 265 254 258 263 265 264 260 261 268 264 270 262 273 265 270 268 262 265 255 258 247 246 238 238 238 250 251 250 250 252 263 267 263
272 264 266 263 280 278 280 280 268 282 268 251 251 251 255 258 263 262 259 267 266 265 270 265 261 276 271 267 268 261 251 240 242 241 247 250 250 256 255 256 259 257 250
226 243 264 261 278 298 307 273 272 273 261 253 240 241 242 247 248 257 255 255 266 268 266 266 270 260 259 265 254 250 263 242 247 249 252 250 254 252 255 260 253 258 273
306 308 306 308 302 300 298 309 291 270 269 240 229 236 243 244 245 241 251 251 248 258 263 264 261 249 259 257 246 264 247 249 250 248 252 255 254 256 259 256 250 260 267
293 289 285 285 288 291 293 293 296 300 306 307 289 254 256 258 253 261 258 259 260 260 262 269 262 260 256 255 253 250 255 251 252 250 255 252 257 261 254 253 252 262 259
293 292 294 296 295 295 296 296 297 295 292 288 287 288 286 283 282 250 245 230 217 217 238 239 264 273 260 258 253 258 256 255 260 258 259 260 254 255 255 250 254 254 253
299 297 295 295 295 295 294 293 293 292 292 290 288 285 284 281 279 276 275 276 268 252 247 252 249 246 250 247 248 244 246 238 255 251 249 245 253 251 255 253 251 244 241
307 305 303 302 300 300 300 298 296 294 292 289 287 284 282 280 278 276 274 273 272 271 270 262 251 252 254 253 240 242 238 247 250 252 254 249 251 251 258 252 247 249 244
305 305 304 303 302 300 299 298 298 298 297 294 290 287 286 284 281 278 274 271 270 269 268 266 264 264 263 260 256 255 255 253 250 253 252 256 252 250 246 256 240 235 234
311 310 309 308 307 306 305 304 302 300 299 298 296 295 292 287 284 282 281 280 277 272 266 264 264 263 262 261 259 258 258 257 256 254 254 249 243 247 243 244 240 229 244
314 313 313 311 310 309 306 305 304 302 300 297 295 294 293 292 290 286 281 278 276 276 275 272 266 263 262 261 261 260 261 260 259 255 252 247 244 246 241 235 236 237 245
317 315 315 314 313 312 309 308 307 306 304 303 301 299 296 292 289 288 286 284 281 278 275 274 272 269 269 267 264 262 259 258 256 253 250 251 243 244 242 239 241 243 247
317 316 315 313 312 313 311 310 308 306 305 304 302 300 297 295 293 290 287 285 282 280 278 275 274 274 270 265 264 263 260 259 257 253 247 249 245 241 245 245 244 239 239
317 315 315 313 313 311 310 309 309 309 307 305 303 300 297 295 292 289 286 285 283 283 277 274 274 273 270 267 264 263 262 258 258 257 250 246 246 245 244 240 241 245 236